Location: Thompson
(55.7500°N, 97.8670°W)
Time: 18:33:15
(UTC-05:00)

Amateur Radio Satellites - All Passes

Search period start: 23 April 2017 18:03
Search period end: 24 April 2017 18:03
Location: Thompson, 55.7500°N, 97.8670°W

Satellite Date Start Highest point End Downlink Frequencies (MHz)
Time Altitude Azimuth
AO-7 23 Apr 18:10:45 18:16:15 19° 277° (W) 18:21:48 .
KKS-1 23 Apr 18:16:37 18:21:03 60° 102° (ESE) 18:25:26 437.445
CUBESAT XI-V 23 Apr 18:19:35 18:24:19 64° 103° (ESE) 18:28:59 437.345
NUDT-PHONESAT 23 Apr 18:22:26 18:26:01 52° 69° (ENE) 18:29:37 437.300
CUTE-I 23 Apr 18:23:42 18:29:01 71° 69° (ENE) 18:34:22 437.470
YUBILEINY 23 Apr 18:29:04 18:36:25 32° 281° (W) 18:43:49 435.215
CUTE 1.7 + AOD 2 23 Apr 18:31:10 18:34:10 19° 56° (NE) 18:37:13 437.475
O/OREOS (USA 219) 23 Apr 18:38:13 18:41:08 16° 26° (NNE) 18:44:02 437.305
AAUSAT CUBESAT 2 23 Apr 18:43:22 18:44:31 11° 48° (NE) 18:45:40 437.432
XW-2D 23 Apr 18:47:09 18:50:53 71° 256° (WSW) 18:54:40 145.860 - 145.880
BEESAT 2 23 Apr 18:49:04 18:52:51 37° 333° (NNW) 18:56:40 435.950
DOVE 4 23 Apr 18:51:49 18:57:02 55° 260° (W) 19:02:11 437.250
BEESAT 23 Apr 18:51:55 18:54:54 17° 311° (NW) 18:57:52 436.000
XW-2B 23 Apr 18:54:02 18:57:44 62° 257° (WSW) 19:01:29 145.730 - 145.750
UWE-3 23 Apr 18:55:43 18:57:35 13° 50° (NE) 18:59:25 435.000/436.395/437.385
SEEDS 23 Apr 18:57:39 19:00:56 22° 58° (ENE) 19:04:13 437.485
STARS 23 Apr 18:58:25 19:02:49 70° 105° (ESE) 19:07:10 437.465
BEESAT 3 23 Apr 18:59:06 19:02:33 26° 345° (NNW) 19:05:59 437.485
CUBEBUG 2 23 Apr 18:59:58 19:03:01 19° 56° (ENE) 19:06:02 437.445
LilacSat-2 23 Apr 19:00:56 19:04:36 50° 260° (W) 19:08:19 437.200
HO-68 23 Apr 19:05:42 19:12:41 59° 61° (ENE) 19:19:44 435.675
XW-2C 23 Apr 19:05:54 19:09:32 46° 261° (W) 19:13:11 145.795 - 145.815
RS-15 23 Apr 19:11:25 19:21:53 36° 253° (WSW) 19:32:00 29.354- 29.394
KAITUO 1B 23 Apr 19:12:16 19:15:52 48° 261° (W) 19:19:29 145.475/437.950
MOZHAYETS 4 23 Apr 19:16:41 19:19:29 16° 309° (NW) 19:22:16
XW-2A 23 Apr 19:27:48 19:31:03 49° 70° (ENE) 19:34:19 145.665 - 145.685
ITUPSAT 1 23 Apr 19:32:02 19:32:36 10° 319° (NW) 19:33:10 437.325
XW-2F 23 Apr 19:34:44 19:37:54 26° 266° (W) 19:41:07 145.980 - 146.000
AO-85 23 Apr 19:38:58 19:42:15 24° 11° (N) 19:45:31 145.980
KKS-1 23 Apr 19:53:41 19:57:20 25° 302° (WNW) 20:00:58 437.445
ZACube-1 23 Apr 19:57:16 20:00:37 24° 59° (ENE) 20:03:57 437.345
CUBESAT XI-V 23 Apr 19:57:29 20:01:22 26° 302° (WNW) 20:05:13 437.345
NUDT-PHONESAT 23 Apr 19:57:34 20:00:14 19° 269° (W) 20:02:55 437.300
CUTE-I 23 Apr 20:05:13 20:09:35 25° 269° (W) 20:13:58 437.470
CUTE 1.7 + AOD 2 23 Apr 20:05:21 20:09:34 76° 256° (WSW) 20:13:50 437.475
AO-73 23 Apr 20:06:06 20:09:34 26° 60° (ENE) 20:13:00 145.935
AAUSAT CUBESAT 2 23 Apr 20:15:03 20:19:06 53° 69° (ENE) 20:23:12 437.432
O/OREOS (USA 219) 23 Apr 20:17:12 20:21:42 47° 50° (NE) 20:26:07 437.305
Oscar 11 23 Apr 20:25:29 20:29:19 33° 63° (ENE) 20:33:13 .
BEESAT 2 23 Apr 20:28:17 20:31:33 23° 356° (N) 20:34:50 435.950
UWE-3 23 Apr 20:29:05 20:33:19 64° 70° (ENE) 20:37:28 435.000/436.395/437.385
SEEDS 23 Apr 20:32:08 20:36:17 62° 259° (W) 20:40:30 437.485
DOVE 4 23 Apr 20:34:12 20:35:49 11° 281° (W) 20:37:27 437.250
CUBEBUG 2 23 Apr 20:34:51 20:39:14 78° 257° (WSW) 20:43:30 437.445
STARS 23 Apr 20:35:25 20:38:46 22° 304° (NW) 20:42:07 437.465
BEESAT 3 23 Apr 20:37:55 20:41:13 23° 8° (N) 20:44:30 437.485
STRAND 1 23 Apr 20:45:30 20:50:25 45° 99° (E) 20:55:18 437.568
HO-68 23 Apr 20:54:02 21:00:44 42° 263° (W) 21:07:30 435.675
XW-2A 23 Apr 21:01:46 21:04:05 17° 269° (W) 21:06:24 145.665 - 145.685
M-CUBED/EXP-1 PRIME 23 Apr 21:12:07 21:16:30 53° 107° (ESE) 21:20:33 437.505
AO-85 23 Apr 21:19:28 21:23:22 54° 35° (NE) 21:27:17 145.980
OBJECT BX 23 Apr 21:28:00 21:31:12 30° 64° (ENE) 21:34:27 145.990 - 145.960
DELFI C3 23 Apr 21:30:10 21:33:56 42° 67° (ENE) 21:37:45 145.870
ZACube-1 23 Apr 21:32:32 21:36:40 56° 260° (W) 21:40:46 437.345
AO-73 23 Apr 21:41:32 21:45:37 50° 260° (W) 21:49:40 145.935
CUTE 1.7 + AOD 2 23 Apr 21:44:31 21:46:11 12° 276° (W) 21:47:51 437.475
AAUSAT CUBESAT 2 23 Apr 21:51:31 21:54:52 23° 269° (W) 21:58:14 437.432
O/OREOS (USA 219) 23 Apr 21:56:51 22:01:01 34° 251° (WSW) 22:05:08 437.305
Oscar 11 23 Apr 22:01:22 22:05:25 40° 263° (W) 22:09:31 .
PRISM 23 Apr 22:04:51 22:06:46 13° 86° (E) 22:08:41 437.425
BEESAT 2 23 Apr 22:06:44 22:10:22 30° 20° (NNE) 22:13:59 435.950
UWE-3 23 Apr 22:07:03 22:10:11 20° 270° (W) 22:13:17 435.000/436.395/437.385
CUBEBUG 2 23 Apr 22:14:43 22:16:35 12° 275° (W) 22:18:25 437.445
FO-29 23 Apr 22:14:50 22:15:32 10° 80° (E) 22:16:15 435.910
BEESAT 3 23 Apr 22:15:43 22:19:38 45° 31° (NNE) 22:23:32 437.485
NO-84 23 Apr 22:18:33 22:21:10 21° 146° (SE) 22:23:38 435.350 FM
STRAND 1 23 Apr 22:24:52 22:29:34 38° 299° (WNW) 22:34:15 437.568
LO-87 23 Apr 22:42:55 22:46:11 32° 65° (ENE) 22:49:28 145.935 - 145.965
M-CUBED/EXP-1 PRIME 23 Apr 22:46:49 22:50:43 30° 308° (NW) 22:54:23 437.505
TIGRISAT 23 Apr 22:50:36 22:53:53 21° 91° (E) 22:57:09 435.000
ESTCUBE 1 23 Apr 22:53:46 22:57:45 32° 61° (ENE) 23:01:46 437.505/2401.250
AO-85 23 Apr 23:00:05 23:03:36 31° 235° (SW) 23:07:11 145.980
OBJECT BX 23 Apr 23:01:35 23:04:53 32° 264° (W) 23:08:13 145.990 - 145.960
DELFI C3 23 Apr 23:05:27 23:08:52 27° 266° (W) 23:12:21 145.870
UNISAT 6 23 Apr 23:10:28 23:14:20 32° 95° (E) 23:18:12 437.425
SPROUT 23 Apr 23:14:29 23:17:19 18° 54° (NE) 23:20:10 437.525
VELOX 1 23 Apr 23:22:06 23:25:34 22° 56° (NE) 23:29:02 145.980
PRISM 23 Apr 23:38:33 23:42:46 82° 106° (ESE) 23:46:55 437.425
50 SAT 23 Apr 23:39:54 23:41:58 15° 56° (NE) 23:44:03 437.505
BEESAT 2 23 Apr 23:44:31 23:48:37 87° 42° (NE) 23:52:42 435.950
BEESAT 3 23 Apr 23:53:25 23:57:16 43° 232° (SW) 00:01:04 437.485
NO-84 23 Apr 23:55:06 23:58:19 59° 165° (SSE) 00:01:19 435.350 FM
FO-29 23 Apr 23:56:48 00:01:57 58° 102° (ESE) 00:07:09 435.910
UKube-1 23 Apr 23:59:16 00:02:07 17° 52° (NE) 00:04:58 .
POLYITAN 1 24 Apr 00:03:51 00:05:31 12° 85° (E) 00:07:12 437.675
STRAND 1 24 Apr 00:06:22 00:07:29 11° 321° (NW) 00:08:36 437.568
QB50P2 24 Apr 00:09:43 00:12:05 15° 86° (E) 00:14:28 145.880/145.840
LO-87 24 Apr 00:16:24 00:19:39 30° 264° (W) 00:22:55 145.935 - 145.965
DX 1 24 Apr 00:24:07 00:28:01 32° 61° (ENE) 00:31:57 434.975-435.025
TIGRISAT 24 Apr 00:26:45 00:30:58 60° 290° (WNW) 00:35:10 435.000
ESTCUBE 1 24 Apr 00:30:06 00:34:27 46° 261° (W) 00:38:50 437.505/2401.250
AIST 2D 24 Apr 00:32:36 00:35:49 32° 96° (E) 00:39:01 435.315
NANOSAT C BR1 24 Apr 00:34:26 00:37:37 20° 91° (E) 00:40:46 145.865
UNISAT 6 24 Apr 00:47:10 00:51:10 39° 295° (WNW) 00:55:09 437.425
SPROUT 24 Apr 00:48:25 00:52:43 88° 266° (W) 00:57:01 437.525
VELOX 1 24 Apr 00:57:11 01:01:38 70° 255° (WSW) 01:06:08 145.980
EO-79 24 Apr 00:59:42 01:03:36 35° 97° (E) 01:07:28 145.935-145.965
DUCHIFAT 1 24 Apr 01:05:39 01:09:29 34° 96° (E) 01:13:18 145.980
50 SAT 24 Apr 01:11:00 01:14:28 75° 254° (WSW) 01:18:01 437.505
BEESAT 24 Apr 01:14:40 01:16:55 13° 46° (NE) 01:19:11 436.000
PRISM 24 Apr 01:14:41 01:17:33 18° 306° (NW) 01:20:24 437.425
BEESAT 2 24 Apr 01:22:59 01:25:55 19° 242° (WSW) 01:28:49 435.950
NO-84 24 Apr 01:32:38 01:35:44 76° 187° (S) 01:38:40 435.350 FM
UKube-1 24 Apr 01:33:15 01:37:35 88° 73° (ENE) 01:41:58 .
POLYITAN 1 24 Apr 01:37:50 01:42:03 77° 103° (ESE) 01:46:16 437.675
MOZHAYETS 4 24 Apr 01:38:19 01:38:52 10° 44° (NE) 01:39:25
FO-29 24 Apr 01:42:23 01:46:54 30° 303° (WNW) 01:51:23 435.910
QB50P2 24 Apr 01:44:16 01:48:31 87° 292° (WNW) 01:52:44 145.880/145.840
ITUPSAT 1 24 Apr 01:51:18 01:54:55 22° 54° (NE) 01:58:33 437.325
DX 1 24 Apr 01:59:57 02:04:08 43° 261° (W) 02:08:21 434.975-435.025
TIGRISAT 24 Apr 02:05:05 02:06:52 12° 311° (NW) 02:08:39 435.000
AIST 2D 24 Apr 02:05:57 02:09:00 28° 295° (WNW) 02:12:02 435.315
NANOSAT C BR1 24 Apr 02:09:34 02:13:43 61° 290° (WNW) 02:17:51 145.865
BUGSAT 1 24 Apr 02:20:27 02:24:29 63° 103° (ESE) 02:28:27 437.445
Gurwin Techsat 1B 24 Apr 02:25:22 02:29:22 21° 88° (E) 02:33:20 435.225
SPROUT 24 Apr 02:26:56 02:29:17 14° 274° (W) 02:31:38 437.525
EO-79 24 Apr 02:35:32 02:39:23 35° 296° (WNW) 02:43:12 145.935-145.965
VELOX 1 24 Apr 02:37:14 02:38:57 12° 276° (W) 02:40:39 145.980
DUCHIFAT 1 24 Apr 02:41:22 02:45:12 36° 296° (WNW) 02:49:02 145.980
Oscar 19 24 Apr 02:48:40 02:53:42 45° 98° (E) 02:58:41 437.125/150
BEESAT 24 Apr 02:49:09 02:53:47 55° 66° (ENE) 02:58:27 436.000
NO-84 24 Apr 03:10:16 03:13:01 33° 207° (SSW) 03:15:39 435.350 FM
MOZHAYETS 4 24 Apr 03:10:39 03:14:57 42° 65° (ENE) 03:19:16
UKube-1 24 Apr 03:11:40 03:14:15 15° 273° (W) 03:16:50 .
POLYITAN 1 24 Apr 03:14:26 03:17:24 19° 305° (NW) 03:20:22 437.675
QB50P2 24 Apr 03:21:06 03:23:45 16° 307° (NW) 03:26:23 145.880/145.840
PCSat 24 Apr 03:21:51 03:25:51 21° 110° (ESE) 03:29:52 145.827
ITUPSAT 1 24 Apr 03:27:31 03:32:17 80° 254° (WSW) 03:37:05 437.325
KKS-1 24 Apr 03:46:16 03:49:56 25° 57° (ENE) 03:53:36 437.445
NANOSAT C BR1 24 Apr 03:46:54 03:48:39 12° 311° (NW) 03:50:24 145.865
YUBILEINY 24 Apr 03:48:57 03:54:49 21° 71° (ENE) 04:00:42 435.215
CUBESAT XI-V 24 Apr 03:53:46 03:57:39 27° 58° (ENE) 04:01:34 437.345
BUGSAT 1 24 Apr 03:56:27 03:59:30 21° 303° (WNW) 04:02:32 437.445
Gurwin Techsat 1B 24 Apr 04:04:38 04:09:59 82° 289° (WNW) 04:15:19 435.225
AO-7 24 Apr 04:06:35 04:13:33 29° 90° (E) 04:20:30 .
ITAMSAT 1 24 Apr 04:07:57 04:12:16 26° 92° (E) 04:16:34 435.822/435.867
STARS 24 Apr 04:26:36 04:30:20 28° 59° (ENE) 04:34:05 437.465
BEESAT 24 Apr 04:27:48 04:31:52 28° 267° (W) 04:35:58 436.000
Oscar 19 24 Apr 04:28:10 04:33:00 39° 299° (WNW) 04:37:49 437.125/150
MOZHAYETS 4 24 Apr 04:48:06 04:52:13 33° 265° (W) 04:56:23
M-CUBED/EXP-1 PRIME 24 Apr 04:59:18 05:01:05 12° 36° (NE) 05:02:51 437.505
PCSat 24 Apr 05:03:08 05:08:35 86° 130° (SE) 05:14:04 145.827
ITUPSAT 1 24 Apr 05:08:17 05:10:55 15° 275° (W) 05:13:34 437.325
KKS-1 24 Apr 05:21:45 05:26:12 61° 257° (WSW) 05:30:40 437.445
CUBESAT XI-V 24 Apr 05:30:09 05:34:45 60° 259° (WSW) 05:39:25 437.345
YUBILEINY 24 Apr 05:41:27 05:50:04 70° 95° (E) 05:58:43 435.215
Gurwin Techsat 1B 24 Apr 05:45:24 05:49:16 21° 310° (NW) 05:53:09 435.225
ITAMSAT 1 24 Apr 05:47:03 05:52:11 66° 293° (WNW) 05:57:19 435.822/435.867
AO-7 24 Apr 05:59:03 06:07:26 90° 111° (ESE) 06:15:47 .
STARS 24 Apr 06:02:09 06:06:29 53° 259° (W) 06:10:49 437.465
Oscar 19 24 Apr 06:09:30 06:11:04 11° 321° (NW) 06:12:37 437.125/150
LilacSat-2 24 Apr 06:28:07 06:29:32 12° 85° (E) 06:30:56 437.200
M-CUBED/EXP-1 PRIME 24 Apr 06:30:07 06:34:28 40° 56° (ENE) 06:38:49 437.505
STRAND 1 24 Apr 06:30:50 06:35:10 29° 57° (ENE) 06:39:31 437.568
XW-2C 24 Apr 06:32:16 06:33:51 12° 86° (E) 06:35:27 145.795 - 145.815
CUTE-I 24 Apr 06:34:04 06:37:16 16° 84° (E) 06:40:27 437.470
KAITUO 1B 24 Apr 06:37:39 06:38:49 11° 85° (E) 06:39:59 145.475/437.950
DOVE 4 24 Apr 06:43:38 06:47:45 27° 90° (E) 06:51:39 437.250
PCSat 24 Apr 06:47:33 06:52:33 36° 334° (NNW) 06:57:35 145.827
XW-2F 24 Apr 06:59:03 07:01:57 21° 91° (E) 07:04:51 145.980 - 146.000
KKS-1 24 Apr 07:03:11 07:03:43 10° 278° (W) 07:04:15 437.445
CUBESAT XI-V 24 Apr 07:12:17 07:13:10 10° 279° (W) 07:14:03 437.345
NUDT-PHONESAT 24 Apr 07:19:25 07:22:36 26° 94° (E) 07:25:46 437.300
ITAMSAT 1 24 Apr 07:27:34 07:30:49 17° 313° (NW) 07:34:04 435.822/435.867
RS-15 24 Apr 07:32:57 07:42:21 28° 101° (E) 07:51:52 29.354- 29.394
YUBILEINY 24 Apr 07:39:34 07:47:35 40° 300° (WNW) 07:55:42 435.215
SO-50 24 Apr 07:41:45 07:44:53 18° 116° (ESE) 07:48:01 436.795
CUTE 1.7 + AOD 2 24 Apr 07:44:05 07:45:58 13° 84° (E) 07:47:52 437.475
XW-2D 24 Apr 07:46:13 07:50:00 60° 102° (ESE) 07:53:46 145.860 - 145.880
AO-7 24 Apr 07:52:15 07:59:29 35° 317° (NW) 08:06:43 .
XW-2B 24 Apr 07:53:04 07:56:52 68° 103° (ESE) 08:00:40 145.730 - 145.750
LilacSat-2 24 Apr 08:00:36 08:04:27 85° 105° (ESE) 08:08:18 437.200
M-CUBED/EXP-1 PRIME 24 Apr 08:04:27 08:08:51 42° 256° (WSW) 08:13:20 437.505
XW-2C 24 Apr 08:04:51 08:08:40 89° 133° (SE) 08:12:29 145.795 - 145.815
STRAND 1 24 Apr 08:09:00 08:14:04 63° 257° (WSW) 08:19:10 437.568
SEEDS 24 Apr 08:09:17 08:11:44 15° 86° (E) 08:14:09 437.485
KAITUO 1B 24 Apr 08:09:42 08:13:29 83° 105° (ESE) 08:17:16 145.475/437.950
HO-68 24 Apr 08:12:42 08:18:56 30° 91° (E) 08:25:07 435.675
CUTE-I 24 Apr 08:12:53 08:18:15 77° 105° (ESE) 08:23:34 437.470
XW-2A 24 Apr 08:15:24 08:17:52 19° 92° (E) 08:20:19 145.665 - 145.685
CUBEBUG 2 24 Apr 08:19:18 08:21:14 13° 85° (E) 08:23:11 437.445
DOVE 4 24 Apr 08:21:01 08:25:48 55° 292° (WNW) 08:30:16 437.250
XW-2F 24 Apr 08:32:42 08:36:23 51° 290° (WNW) 08:40:04 145.980 - 146.000
PCSat 24 Apr 08:32:55 08:37:24 25° 360° (N) 08:41:53 145.827
FO-29 24 Apr 08:34:22 08:38:00 17° 47° (NE) 08:41:27 435.910
UNISAT 6 24 Apr 08:42:11 08:44:31 14° 51° (NE) 08:46:49 437.425
NUDT-PHONESAT 24 Apr 08:53:10 08:56:38 37° 293° (WNW) 09:00:04 437.300
PRISM 24 Apr 09:00:21 09:03:49 26° 59° (ENE) 09:07:18 437.425
ZACube-1 24 Apr 09:13:39 09:16:25 17° 88° (E) 09:19:11 437.345
CUTE 1.7 + AOD 2 24 Apr 09:18:15 09:22:34 78° 104° (ESE) 09:26:52 437.475
SO-50 24 Apr 09:20:10 09:24:45 81° 137° (SE) 09:29:20 436.795
XW-2D 24 Apr 09:21:05 09:23:52 20° 301° (WNW) 09:26:39 145.860 - 145.880
AO-73 24 Apr 09:22:06 09:25:04 18° 89° (E) 09:28:02 145.935
AAUSAT CUBESAT 2 24 Apr 09:24:55 09:28:49 35° 96° (E) 09:32:41 437.432
XW-2B 24 Apr 09:28:04 09:30:41 18° 302° (WNW) 09:33:18 145.730 - 145.750
LilacSat-2 24 Apr 09:35:57 09:38:14 15° 304° (NW) 09:40:33 437.200
XW-2C 24 Apr 09:40:12 09:42:21 15° 305° (NW) 09:44:29 145.795 - 145.815
RS-15 24 Apr 09:40:43 09:52:48 73° 128° (SE) 10:05:06 29.354- 29.394
Oscar 11 24 Apr 09:40:53 09:44:25 24° 91° (E) 09:47:57 .
YUBILEINY 24 Apr 09:42:50 09:47:37 15° 330° (NNW) 09:52:26 435.215
SEEDS 24 Apr 09:43:46 09:48:03 88° 287° (WNW) 09:52:19 437.485
KAITUO 1B 24 Apr 09:44:46 09:47:01 15° 304° (NW) 09:49:15 145.475/437.950
AO-7 24 Apr 09:44:59 09:50:02 18° 343° (NNW) 09:55:04 .
UWE-3 24 Apr 09:47:11 09:51:14 49° 100° (E) 09:55:19 435.000/436.395/437.385
XW-2A 24 Apr 09:47:38 09:50:52 44° 291° (WNW) 09:54:04 145.665 - 145.685
STRAND 1 24 Apr 09:52:15 09:54:19 12° 278° (W) 09:56:23 437.568
CUTE-I 24 Apr 09:53:31 09:57:51 26° 306° (NW) 10:02:09 437.470
CUBEBUG 2 24 Apr 09:54:23 09:58:34 85° 105° (ESE) 10:02:45 437.445
TIGRISAT 24 Apr 09:56:02 10:00:12 45° 67° (ENE) 10:04:19 435.000
DOVE 4 24 Apr 10:00:10 10:02:27 13° 314° (NW) 10:04:41 437.250
HO-68 24 Apr 10:00:11 10:07:24 79° 293° (WNW) 10:14:36 435.675
UNISAT 6 24 Apr 10:16:11 10:20:32 71° 72° (ENE) 10:24:51 437.425
FO-29 24 Apr 10:16:14 10:22:18 63° 67° (ENE) 10:27:46 435.910
PCSat 24 Apr 10:17:15 10:22:14 35° 25° (NNE) 10:27:14 145.827
OBJECT BX 24 Apr 10:23:30 10:25:36 15° 88° (E) 10:27:41 145.990 - 145.960
EO-79 24 Apr 10:25:50 10:28:01 14° 51° (NE) 10:30:10 145.935-145.965
DUCHIFAT 1 24 Apr 10:31:23 10:33:23 13° 50° (NE) 10:35:24 145.980
DELFI C3 24 Apr 10:34:29 10:37:51 25° 93° (E) 10:41:10 145.870
PRISM 24 Apr 10:34:49 10:38:53 51° 259° (W) 10:43:00 437.425
O/OREOS (USA 219) 24 Apr 10:40:33 10:41:51 11° 96° (E) 10:43:10 437.305
ZACube-1 24 Apr 10:49:02 10:53:13 74° 287° (WNW) 10:57:26 437.345
CUTE 1.7 + AOD 2 24 Apr 10:54:53 10:57:56 19° 304° (NW) 11:00:59 437.475
AO-73 24 Apr 10:57:36 11:01:46 68° 288° (WNW) 11:05:57 145.935
AAUSAT CUBESAT 2 24 Apr 11:00:27 11:04:17 35° 296° (WNW) 11:08:07 437.432
SO-50 24 Apr 11:01:23 11:05:38 36° 338° (NNW) 11:09:51 436.795
POLYITAN 1 24 Apr 11:02:36 11:06:03 25° 59° (ENE) 11:09:30 437.675
Tancredo 1 24 Apr 11:05:07 11:07:13 17° 152° (SSE) 11:09:19 437.200
ISS 24 Apr 11:06:13 11:08:18 16° 150° (SSE) 11:10:23 437.550
QB50P2 24 Apr 11:08:47 11:12:27 29° 61° (ENE) 11:16:06 145.880/145.840
AIST 2D 24 Apr 11:13:56 11:17:11 38° 68° (ENE) 11:20:27 435.315
Oscar 11 24 Apr 11:16:37 11:20:53 55° 291° (WNW) 11:25:08 .
SEEDS 24 Apr 11:20:27 11:23:11 17° 306° (NW) 11:25:55 437.485
UWE-3 24 Apr 11:24:04 11:27:32 26° 299° (WNW) 11:31:00 435.000/436.395/437.385
CUBEBUG 2 24 Apr 11:32:00 11:34:42 17° 305° (NW) 11:37:24 437.445
NANOSAT C BR1 24 Apr 11:33:10 11:37:05 39° 65° (ENE) 11:41:02 145.865
TIGRISAT 24 Apr 11:33:16 11:37:04 28° 266° (W) 11:40:51 435.000
AO-7 24 Apr 11:35:11 11:39:50 17° 11° (N) 11:44:29 .
LO-87 24 Apr 11:36:32 11:38:34 14° 88° (E) 11:40:36 145.935 - 145.965
BUGSAT 1 24 Apr 11:43:03 11:46:06 20° 57° (ENE) 11:49:08 437.445
YUBILEINY 24 Apr 11:48:05 11:49:41 11° 5° (N) 11:51:18 435.215
HO-68 24 Apr 11:48:29 11:54:15 27° 316° (NW) 12:00:02 435.675
RS-15 24 Apr 11:53:41 12:05:57 65° 337° (NNW) 12:18:15 29.354- 29.394
UNISAT 6 24 Apr 11:54:38 11:57:44 19° 271° (W) 12:00:49 437.425
OBJECT BX 24 Apr 11:56:04 11:59:45 71° 288° (WNW) 12:03:24 145.990 - 145.960
EO-79 24 Apr 11:58:52 12:03:04 70° 71° (ENE) 12:07:17 145.935-145.965
PCSat 24 Apr 12:00:45 12:06:15 88° 229° (SW) 12:11:42 145.827
FO-29 24 Apr 12:02:26 12:07:47 30° 267° (W) 12:12:42 435.910
DUCHIFAT 1 24 Apr 12:04:11 12:08:21 66° 71° (ENE) 12:12:32 145.980
DELFI C3 24 Apr 12:08:58 12:12:51 46° 292° (WNW) 12:16:42 145.870
ESTCUBE 1 24 Apr 12:14:59 12:18:41 24° 91° (E) 12:22:21 437.505/2401.250
O/OREOS (USA 219) 24 Apr 12:15:48 12:20:20 62° 116° (ESE) 12:24:55 437.305
Gurwin Techsat 1B 24 Apr 12:16:25 12:19:47 17° 46° (NE) 12:23:09 435.225
ZACube-1 24 Apr 12:26:38 12:28:51 14° 308° (NW) 12:31:04 437.345
Oscar 19 24 Apr 12:34:52 12:39:16 29° 56° (ENE) 12:43:42 437.125/150
AO-73 24 Apr 12:35:19 12:37:18 13° 309° (NW) 12:39:17 145.935
POLYITAN 1 24 Apr 12:37:28 12:41:36 54° 259° (W) 12:45:45 437.675
Tancredo 1 24 Apr 12:39:42 12:42:36 35° 171° (S) 12:45:29 437.200
VELOX 1 24 Apr 12:40:49 12:43:11 14° 85° (E) 12:45:34 145.980
ISS 24 Apr 12:41:10 12:44:11 35° 169° (S) 12:47:12 437.550
SO-50 24 Apr 12:43:15 12:47:08 27° 3° (N) 12:51:02 436.795
QB50P2 24 Apr 12:44:03 12:48:07 45° 261° (W) 12:52:11 145.880/145.840
AIST 2D 24 Apr 12:47:44 12:50:33 23° 267° (W) 12:53:23 435.315
Oscar 11 24 Apr 12:54:31 12:56:09 12° 312° (NW) 12:57:47 .
LO-87 24 Apr 13:08:53 13:12:28 69° 288° (WNW) 13:16:01 145.935 - 145.965
NANOSAT C BR1 24 Apr 13:09:08 13:12:54 31° 265° (W) 13:16:41 145.865
BUGSAT 1 24 Apr 13:16:57 13:21:05 69° 256° (WSW) 13:25:12 437.445
AO-7 24 Apr 13:23:23 13:30:07 29° 37° (NE) 13:36:51 .
AO-85 24 Apr 13:24:24 13:25:00 10° 112° (ESE) 13:25:36 145.980
OBJECT BX 24 Apr 13:31:29 13:32:47 12° 308° (NW) 13:34:05 145.990 - 145.960
EO-79 24 Apr 13:36:20 13:39:18 18° 271° (W) 13:42:17 145.935-145.965
HO-68 24 Apr 13:37:05 13:39:45 12° 341° (NNW) 13:42:25 435.675
DX 1 24 Apr 13:40:45 13:44:03 20° 90° (E) 13:47:19 434.975-435.025
DUCHIFAT 1 24 Apr 13:41:26 13:44:28 19° 270° (W) 13:47:29 145.980
PCSat 24 Apr 13:44:55 13:49:00 22° 250° (WSW) 13:53:05 145.827
YUBILEINY 24 Apr 13:45:14 13:51:20 20° 39° (NE) 13:57:24 435.215
ESTCUBE 1 24 Apr 13:51:21 13:55:52 60° 291° (WNW) 14:00:20 437.505/2401.250
Gurwin Techsat 1B 24 Apr 13:53:36 13:58:51 65° 68° (ENE) 14:04:09 435.225
ITAMSAT 1 24 Apr 13:55:53 13:59:34 20° 49° (NE) 14:03:15 435.822/435.867
O/OREOS (USA 219) 24 Apr 13:56:00 14:00:06 30° 318° (NW) 14:04:12 437.305
50 SAT 24 Apr 14:00:08 14:03:28 38° 99° (E) 14:06:45 437.505
SPROUT 24 Apr 14:02:20 14:06:34 63° 102° (ESE) 14:10:47 437.525
RS-15 24 Apr 14:08:27 14:20:42 58° 9° (N) 14:32:41 29.354- 29.394
Oscar 19 24 Apr 14:13:09 14:18:17 64° 257° (WSW) 14:23:29 437.125/150
Tancredo 1 24 Apr 14:15:18 14:18:09 33° 191° (S) 14:21:00 437.200
VELOX 1 24 Apr 14:15:54 14:20:23 83° 106° (ESE) 14:24:50 145.980
ISS 24 Apr 14:17:15 14:20:18 37° 189° (S) 14:23:20 437.550
SO-50 24 Apr 14:24:13 14:28:34 43° 27° (NNE) 14:32:53 436.795
LO-87 24 Apr 14:44:13 14:45:14 11° 308° (NW) 14:46:17 145.935 - 145.965
UKube-1 24 Apr 14:48:37 14:52:54 55° 102° (ESE) 14:57:08 .
BUGSAT 1 24 Apr 14:56:21 14:57:14 11° 276° (W) 14:58:08 437.445
AO-85 24 Apr 15:00:32 15:04:37 55° 131° (SE) 15:08:31 145.980
AO-7 24 Apr 15:13:33 15:21:47 72° 61° (ENE) 15:30:03 .
DX 1 24 Apr 15:16:19 15:20:41 66° 290° (WNW) 15:25:00 434.975-435.025
ITUPSAT 1 24 Apr 15:21:16 15:24:14 16° 86° (E) 15:27:10 437.325
BEESAT 2 24 Apr 15:22:24 15:23:50 12° 112° (ESE) 15:25:17 435.950
HO-68 24 Apr 15:23:31 15:24:31 10° 8° (N) 15:25:32 435.675
BEESAT 3 24 Apr 15:27:04 15:30:23 26° 121° (ESE) 15:33:45 437.485
ESTCUBE 1 24 Apr 15:29:36 15:31:50 14° 312° (NW) 15:34:04 437.505/2401.250
ITAMSAT 1 24 Apr 15:33:10 15:38:21 80° 71° (ENE) 15:43:35 435.822/435.867
50 SAT 24 Apr 15:33:23 15:36:16 24° 298° (WNW) 15:39:10 437.505
Gurwin Techsat 1B 24 Apr 15:34:46 15:39:15 27° 268° (W) 15:43:45 435.225
SPROUT 24 Apr 15:38:50 15:42:10 22° 302° (WNW) 15:45:28 437.525
O/OREOS (USA 219) 24 Apr 15:38:51 15:41:01 13° 343° (NNW) 15:43:11 437.305
YUBILEINY 24 Apr 15:42:00 15:50:35 55° 67° (ENE) 15:59:10 435.215
Tancredo 1 24 Apr 15:51:35 15:53:29 15° 210° (SSW) 15:55:23 437.200
VELOX 1 24 Apr 15:53:09 15:56:20 19° 306° (NW) 15:59:30 145.980
ISS 24 Apr 15:53:55 15:56:13 18° 208° (SSW) 15:58:31 437.550
Oscar 19 24 Apr 15:56:27 15:58:41 13° 278° (W) 16:00:56 437.125/150
SO-50 24 Apr 16:04:46 16:09:13 58° 229° (SW) 16:13:38 436.795
BEESAT 24 Apr 16:19:07 16:23:42 44° 99° (E) 16:28:15 436.000
DOVE 4 24 Apr 16:20:29 16:23:35 16° 49° (NE) 16:26:39 437.250
RS-15 24 Apr 16:22:14 16:34:43 86° 40° (NE) 16:46:44 29.354- 29.394
UKube-1 24 Apr 16:25:06 16:28:41 26° 302° (WNW) 16:32:15 .
CUTE-I 24 Apr 16:26:05 16:28:51 14° 43° (NE) 16:31:38 437.470
MOZHAYETS 4 24 Apr 16:34:47 16:39:01 35° 96° (E) 16:43:14
AO-85 24 Apr 16:41:21 16:45:10 38° 332° (NNW) 16:48:54 145.980
DX 1 24 Apr 16:53:48 16:56:07 14° 311° (NW) 16:58:24 434.975-435.025
BEESAT 2 24 Apr 16:56:52 17:00:49 62° 132° (SE) 17:04:51 435.950
ITUPSAT 1 24 Apr 16:57:58 17:02:48 86° 108° (ESE) 17:07:35 437.325
XW-2D 24 Apr 17:02:29 17:04:27 14° 54° (NE) 17:06:27 145.860 - 145.880
BEESAT 3 24 Apr 17:03:43 17:07:42 66° 322° (NW) 17:11:44 437.485
HO-68 24 Apr 17:04:58 17:09:37 19° 34° (NE) 17:14:16 435.675
KKS-1 24 Apr 17:05:57 17:08:44 16° 87° (E) 17:11:29 437.445
AO-7 24 Apr 17:07:38 17:15:12 38° 264° (W) 17:22:50 .
XW-2B 24 Apr 17:09:03 17:11:16 15° 56° (NE) 17:13:30 145.730 - 145.750
ITAMSAT 1 24 Apr 17:14:33 17:18:27 21° 271° (W) 17:22:23 435.822/435.867
LilacSat-2 24 Apr 17:16:39 17:19:16 18° 58° (ENE) 17:21:54 437.200
CUBESAT XI-V 24 Apr 17:19:19 17:23:01 22° 90° (E) 17:26:40 437.345
XW-2C 24 Apr 17:20:18 17:22:57 19° 58° (ENE) 17:25:38 145.795 - 145.815
O/OREOS (USA 219) 24 Apr 17:21:03 17:22:32 11° 9° (N) 17:24:01 437.305
KAITUO 1B 24 Apr 17:24:16 17:26:43 17° 57° (ENE) 17:29:11 145.475/437.950
YUBILEINY 24 Apr 17:39:08 17:47:25 50° 272° (W) 17:55:44 435.215
STARS 24 Apr 17:44:32 17:47:27 17° 88° (E) 17:50:21 437.465
XW-2F 24 Apr 17:46:54 17:50:09 29° 64° (ENE) 17:53:27 145.980 - 146.000
SO-50 24 Apr 17:47:02 17:48:48 12° 249° (WSW) 17:50:33 436.795
